Regional Weather Roundup
Issued by NWS Lake Charles, LA

Home | Current Version | Previous Version | Text Only | Print | Product List | Glossary On
Versions: 1 2 3 4 5 6 7 8 9 10 11 12 13 14 15 16 17 18 19 20 21 22 23 24 25 26 27 28
000
ASUS44 KLCH 242210
RWRLCH
REGIONAL WEATHER ROUNDUP
NATIONAL WEATHER SERVICE LAKE CHARLES LA
500 PM CDT SUN JUL 24 2016

Note: "fair" indicates few or no clouds below 12,000 feet with no
significant weather and/or obstructions to visibility.


ACROSS SOUTHEAST TEXAS

CITY           SKY/WX    TMP DP  RH WIND       PRES   REMARKS
BEAUMONT       PTSUNNY   89  73  59 NW7       29.90S
BEAUMONT CITY  FAIR      90  78  68 SE3       29.91S HX 103
ORANGE         CLOUDY    93  68  44 S8        29.92R
JASPER         MOSUNNY   91  74  56 N6        29.93R HX 100
$$

ACROSS CENTRAL LOUISIANA

CITY           SKY/WX    TMP DP  RH WIND       PRES   REMARKS
LEESVILLE      CLOUDY    80  75  84 SE9       29.95R
FULLERTON      FAIR      79  75  87 VRB5      29.94R
ALEXANDRIA INT LGT RAIN  80  78  94 SE5       29.95R
ESLER FIELD    CLOUDY    84  75  74 CALM      29.97R
DERIDDER       CLOUDY    80  78  94 E9G18     29.97R
OAKDALE        CLOUDY    75  74  95 CALM      29.96F
OPELOUSAS      FAIR      86  72  63 S3        29.95S
$$

ACROSS SOUTHWEST AND SOUTH CENTRAL LOUISIANA

CITY           SKY/WX    TMP DP  RH WIND       PRES   REMARKS
SULPHUR        CLOUDY    91  76  61 E8        29.93R HX 103
LAKE CHARLES   CLOUDY    89  75  63 E9        29.93R
CHENNAULT INT  PTSUNNY   88  75  66 E8        29.94S
CAMERON PHI    CLEAR     88  77  70 SE7       29.92R HX 100
DEQUINCY       FAIR      85  72  64 SE7       29.92F
JENNINGS       FAIR      82  75  78 E3        29.95F
LAFAYETTE      CLOUDY    84  75  74 CALM      29.95S
NEW IBERIA     CLOUDY    87  76  69 N7        29.94F
ABBEVILLE      FAIR      81  77  89 N3        29.95S
PATTERSON      CLOUDY    80  75  84 CALM      29.96S
SALT POINT       N/A     81  75  82 VRB3      29.93S
$$

SELECTED SITES ACROSS THE REGION

CITY           SKY/WX    TMP DP  RH WIND       PRES   REMARKS
HOUSTON BUSH   MOSUNNY   97  74  47 SE12G21   29.87F HX 108
HOUSTON HOBBY  PTSUNNY   94  75  54 S8        29.88F HX 105
GALVESTON      MOSUNNY   90  79  70 S14       29.92F HX 106
COLLEGE STAT   SUNNY     98  66  34 S7        29.87F HX 101
CONROE         SUNNY     98  68  37 MISG      29.88F HX 103
HUNTSVILLE     MOSUNNY   99  64  31 S7        29.88F HX 101
LUFKIN         SUNNY     97  70  41 SE5       29.89F HX 103
SHREVEPORT     CLOUDY    96  75  50 N5        29.91R HX 108
MONROE         TSTM      78  72  81 E3        29.99S
NATCHEZ MS     MOSUNNY   88  75  66 N3        29.96S
BATON ROUGE    PTSUNNY   88  75  65 E10       29.94F
N.O. INTL ARPT RAIN      83  76  79 N8        29.95S
SLIDELL        CLOUDY    86  75  69 MISG      29.95R THUNDER
$$

MARINE REPORTS

STATION/POSITION TIME  SKY/WX   TEMP    WIND        PRES    VSBY
                                AIR SEA DIR/SP/G
                 (UTC)          (F)     (DEG/KT/KT) (MB)    (MI)
BUOY 30 S HIGH I 2150            87 91  180/  8/ 10 1013.2F
WVE H/P(F/S)=  2/ 4

SEA RIM ST PARK  2200            88     180/  8/ 11 1013.5F
PORT ARTHUR      2100               90  150/  6/ 10 1013.2F
SABINE PASS N    2100            90 90  170/  7/ 11 1014.6F
TEXAS POINT      NOT AVBL
CALCASIEU PASS   2100            87 91  170/  5/  7 1012.8F
LK CHARLES BEACH 2100            87 90              1013.6F
MARSH ISLAND     2100            90                   N/A
FRESH WATER LOCK 2100            87 89   70/  6/  7 1014.7F
AMERADA PASS     2100            79 87   80/  5/  7 1014.3F
$$




USA.gov is the U.S. government's official web portal to all federal, state and local government web resources and services.